Time,TemperatureF,DewpointF,PressureIn,WindDirection,WindDirectionDegrees,WindSpeedMPH,WindSpeedGustMPH,Humidity,HourlyPrecipIn,Conditions,Clouds,dailyrainin,SolarRadiationWatts/m^2,SoftwareType,DateUTC
2013-04-07 00:02:00,48.0,48.0,-100.00,SSE,159,8.0,15.0,97,-99.99,,,0.03,0.350000,,2013-04-07 07:02:00,
2013-04-07 00:12:00,48.0,48.0,-100.00,SSE,159,8.0,15.0,97,-99.99,,,0.03,0.350000,,2013-04-07 07:12:00,
2013-04-07 00:42:00,49.0,48.0,-100.00,South,180,10.0,18.0,94,-99.99,,,0.03,0.350000,,2013-04-07 07:42:00,
2013-04-07 00:52:00,49.0,48.0,-100.00,South,180,10.0,18.0,94,-99.99,,,0.03,0.350000,,2013-04-07 07:52:00,
2013-04-07 01:02:00,49.0,48.0,-100.00,South,180,10.0,18.0,94,-99.99,,,0.03,0.350000,,2013-04-07 08:02:00,
2013-04-07 01:12:00,49.0,48.0,-100.00,South,180,10.0,18.0,94,-99.99,,,0.03,0.350000,,2013-04-07 08:12:00,
2013-04-07 01:42:00,50.0,48.0,-100.00,South,183,12.0,23.0,93,-99.99,,,0.03,0.350000,,2013-04-07 08:42:00,
2013-04-07 01:53:00,50.0,48.0,-100.00,South,183,12.0,23.0,93,-99.99,,,0.03,0.350000,,2013-04-07 08:53:00,
2013-04-07 02:02:00,50.0,48.0,-100.00,South,183,12.0,23.0,93,-99.99,,,0.03,0.350000,,2013-04-07 09:02:00,
2013-04-07 02:12:00,50.0,48.0,-100.00,South,183,12.0,23.0,93,-99.99,,,0.03,0.350000,,2013-04-07 09:12:00,
2013-04-07 02:43:00,50.0,48.0,-100.00,South,186,12.0,28.0,94,-99.99,,,0.03,0.350000,,2013-04-07 09:43:00,
2013-04-07 02:53:00,50.0,48.0,-100.00,South,186,12.0,28.0,94,-99.99,,,0.03,0.350000,,2013-04-07 09:53:00,
2013-04-07 03:03:00,50.0,48.0,-100.00,South,186,12.0,28.0,94,-99.99,,,0.03,0.350000,,2013-04-07 10:03:00,
2013-04-07 03:13:00,50.0,48.0,-100.00,South,186,12.0,28.0,94,-99.99,,,0.03,0.350000,,2013-04-07 10:13:00,
2013-04-07 03:42:00,52.0,48.0,-100.00,SSW,201,11.0,20.0,87,-99.99,,,0.03,0.230000,,2013-04-07 10:42:00,
2013-04-07 03:53:00,52.0,48.0,-100.00,SSW,201,11.0,20.0,87,-99.99,,,0.03,0.230000,,2013-04-07 10:53:00,
2013-04-07 04:02:00,52.0,48.0,-100.00,SSW,201,11.0,20.0,87,-99.99,,,0.03,0.230000,,2013-04-07 11:02:00,
2013-04-07 04:12:00,52.0,48.0,-100.00,SSW,201,11.0,20.0,87,-99.99,,,0.03,0.230000,,2013-04-07 11:12:00,
2013-04-07 04:42:00,53.0,47.0,-100.00,SW,216,14.0,31.0,80,-99.99,,,0.02,0.000000,,2013-04-07 11:42:00,
2013-04-07 04:53:00,53.0,47.0,-100.00,SW,216,14.0,31.0,80,-99.99,,,0.02,0.000000,,2013-04-07 11:53:00,
2013-04-07 05:02:00,53.0,47.0,-100.00,SW,216,14.0,31.0,80,-99.99,,,0.02,0.000000,,2013-04-07 12:02:00,
2013-04-07 05:12:00,53.0,47.0,-100.00,SW,216,14.0,31.0,80,-99.99,,,0.02,0.000000,,2013-04-07 12:12:00,
2013-04-07 05:42:00,51.0,45.0,-100.00,WSW,241,11.0,27.0,79,-99.99,,,0.02,0.000000,,2013-04-07 12:42:00,
2013-04-07 05:53:00,51.0,45.0,-100.00,WSW,241,11.0,27.0,79,-99.99,,,0.02,0.000000,,2013-04-07 12:53:00,
2013-04-07 06:03:00,51.0,45.0,-100.00,WSW,241,11.0,27.0,79,-99.99,,,0.02,0.000000,,2013-04-07 13:03:00,
2013-04-07 06:12:00,51.0,45.0,-100.00,WSW,241,11.0,27.0,79,-99.99,,,0.02,0.000000,,2013-04-07 13:12:00,
2013-04-07 06:42:00,48.0,43.0,-100.00,SW,230,7.0,14.0,83,-99.99,,,0.02,0.000000,,2013-04-07 13:42:00,
2013-04-07 06:53:00,48.0,43.0,-100.00,SW,230,7.0,14.0,83,-99.99,,,0.02,0.000000,,2013-04-07 13:53:00,
2013-04-07 07:02:00,48.0,43.0,-100.00,SW,230,7.0,14.0,83,-99.99,,,0.02,0.000000,,2013-04-07 14:02:00,
2013-04-07 07:12:00,48.0,43.0,-100.00,SW,230,7.0,14.0,83,-99.99,,,0.02,0.000000,,2013-04-07 14:12:00,
2013-04-07 07:43:00,48.0,43.0,-100.00,SW,226,8.0,19.0,82,-99.99,,,0.02,9.530000,,2013-04-07 14:43:00,
2013-04-07 08:02:00,48.0,43.0,-100.00,SW,226,8.0,19.0,82,-99.99,,,0.02,9.530000,,2013-04-07 15:02:00,
2013-04-07 08:12:00,48.0,43.0,-100.00,SW,226,8.0,19.0,82,-99.99,,,0.02,9.530000,,2013-04-07 15:12:00,
2013-04-07 08:43:00,48.0,42.0,-100.00,WSW,244,12.0,23.0,77,-99.99,,,0.02,122.029999,,2013-04-07 15:43:00,
2013-04-07 08:54:00,48.0,42.0,-100.00,WSW,244,12.0,23.0,77,-99.99,,,0.02,122.029999,,2013-04-07 15:54:00,
2013-04-07 09:03:00,48.0,42.0,-100.00,WSW,244,12.0,23.0,77,-99.99,,,0.02,122.029999,,2013-04-07 16:03:00,
2013-04-07 09:13:00,48.0,42.0,-100.00,WSW,244,12.0,23.0,77,-99.99,,,0.02,122.029999,,2013-04-07 16:13:00,
2013-04-07 09:42:00,49.0,42.0,-100.00,WSW,250,10.0,24.0,77,-99.99,,,0.02,164.220001,,2013-04-07 16:42:00,
2013-04-07 09:54:00,49.0,42.0,-100.00,WSW,250,10.0,24.0,77,-99.99,,,0.02,164.220001,,2013-04-07 16:54:00,
2013-04-07 10:03:00,49.0,42.0,-100.00,WSW,250,10.0,24.0,77,-99.99,,,0.02,164.220001,,2013-04-07 17:03:00,
2013-04-07 10:12:00,49.0,42.0,-100.00,WSW,250,10.0,24.0,77,-99.99,,,0.02,164.220001,,2013-04-07 17:12:00,
2013-04-07 10:42:00,49.0,43.0,-100.00,SSW,198,10.0,18.0,82,-99.99,,,0.02,140.860001,,2013-04-07 17:42:00,
2013-04-07 10:53:00,49.0,43.0,-100.00,SSW,198,10.0,18.0,82,-99.99,,,0.02,140.860001,,2013-04-07 17:53:00,
2013-04-07 11:02:00,49.0,43.0,-100.00,SSW,198,10.0,18.0,82,-99.99,,,0.02,140.860001,,2013-04-07 18:02:00,
2013-04-07 11:12:00,49.0,43.0,-100.00,SSW,198,10.0,18.0,82,-99.99,,,0.02,140.860001,,2013-04-07 18:12:00,
2013-04-07 11:42:00,48.0,42.0,-100.00,WSW,238,11.0,25.0,81,-99.99,,,0.02,133.649994,,2013-04-07 18:42:00,
2013-04-07 11:52:00,48.0,42.0,-100.00,WSW,238,11.0,25.0,81,-99.99,,,0.02,133.649994,,2013-04-07 18:52:00,
2013-04-07 12:02:00,48.0,42.0,-100.00,WSW,238,11.0,25.0,81,-99.99,,,0.02,133.649994,,2013-04-07 19:02:00,
2013-04-07 12:12:00,48.0,42.0,-100.00,WSW,238,11.0,25.0,81,-99.99,,,0.02,133.649994,,2013-04-07 19:12:00,
2013-04-07 12:42:00,47.0,44.0,-100.00,SW,228,8.0,16.0,87,-99.99,,,0.02,291.359985,,2013-04-07 19:42:00,
2013-04-07 13:02:00,47.0,44.0,-100.00,SW,228,8.0,16.0,87,-99.99,,,0.02,291.359985,,2013-04-07 20:02:00,
2013-04-07 13:12:00,47.0,44.0,-100.00,SW,228,8.0,16.0,87,-99.99,,,0.02,291.359985,,2013-04-07 20:12:00,
2013-04-07 13:43:00,50.0,42.0,-100.00,WSW,252,14.0,26.0,74,-99.99,,,0.02,520.080017,,2013-04-07 20:43:00,
2013-04-07 13:53:00,50.0,42.0,-100.00,WSW,252,14.0,26.0,74,-99.99,,,0.02,520.080017,,2013-04-07 20:53:00,
2013-04-07 14:02:00,50.0,42.0,-100.00,WSW,252,14.0,26.0,74,-99.99,,,0.02,520.080017,,2013-04-07 21:02:00,
2013-04-07 14:12:00,50.0,42.0,-100.00,WSW,252,14.0,26.0,74,-99.99,,,0.02,520.080017,,2013-04-07 21:12:00,
2013-04-07 14:43:00,50.0,41.0,-100.00,SW,231,10.0,24.0,70,-99.99,,,0.02,501.369995,,2013-04-07 21:43:00,
2013-04-07 14:54:00,50.0,41.0,-100.00,SW,231,10.0,24.0,70,-99.99,,,0.02,501.369995,,2013-04-07 21:54:00,
2013-04-07 15:03:00,50.0,41.0,-100.00,SW,231,10.0,24.0,70,-99.99,,,0.02,501.369995,,2013-04-07 22:03:00,
2013-04-07 15:13:00,50.0,41.0,-100.00,SW,231,10.0,24.0,70,-99.99,,,0.02,501.369995,,2013-04-07 22:13:00,
2013-04-07 15:43:00,49.0,39.0,-100.00,WSW,257,13.0,22.0,68,-99.99,,,0.02,346.799988,,2013-04-07 22:43:00,
2013-04-07 15:53:00,49.0,39.0,-100.00,WSW,257,13.0,22.0,68,-99.99,,,0.02,346.799988,,2013-04-07 22:53:00,
2013-04-07 16:03:00,49.0,39.0,-100.00,WSW,257,13.0,22.0,68,-99.99,,,0.02,346.799988,,2013-04-07 23:03:00,
2013-04-07 16:12:00,49.0,39.0,-100.00,WSW,257,13.0,22.0,68,-99.99,,,0.02,346.799988,,2013-04-07 23:12:00,
2013-04-07 16:42:00,47.0,40.0,-100.00,West,263,12.0,25.0,78,-99.99,,,0.02,228.139999,,2013-04-07 23:42:00,
2013-04-07 16:52:00,47.0,40.0,-100.00,West,263,12.0,25.0,78,-99.99,,,0.02,228.139999,,2013-04-07 23:52:00,
2013-04-07 17:02:00,47.0,40.0,-100.00,West,263,12.0,25.0,78,-99.99,,,0.02,228.139999,,2013-04-08 00:02:00,
2013-04-07 17:12:00,47.0,40.0,-100.00,West,263,12.0,25.0,78,-99.99,,,0.02,228.139999,,2013-04-08 00:12:00,
2013-04-07 17:42:00,47.0,41.0,-100.00,WSW,251,6.0,12.0,77,-99.99,,,0.02,169.100006,,2013-04-08 00:42:00,
2013-04-07 17:52:00,47.0,41.0,-100.00,WSW,251,6.0,12.0,77,-99.99,,,0.02,169.100006,,2013-04-08 00:52:00,
2013-04-07 18:02:00,47.0,41.0,-100.00,WSW,251,6.0,12.0,77,-99.99,,,0.02,169.100006,,2013-04-08 01:02:00,
2013-04-07 18:12:00,47.0,41.0,-100.00,WSW,251,6.0,12.0,77,-99.99,,,0.02,169.100006,,2013-04-08 01:12:00,
2013-04-07 18:43:00,47.0,40.0,-100.00,WSW,247,5.0,11.0,77,-99.99,,,0.02,63.689999,,2013-04-08 01:43:00,
2013-04-07 18:55:00,47.0,40.0,-100.00,WSW,247,5.0,11.0,77,-99.99,,,0.02,63.689999,,2013-04-08 01:55:00,
2013-04-07 19:02:00,47.0,40.0,-100.00,WSW,247,5.0,11.0,77,-99.99,,,0.02,63.689999,,2013-04-08 02:02:00,
2013-04-07 19:12:00,47.0,40.0,-100.00,WSW,247,5.0,11.0,77,-99.99,,,0.02,63.689999,,2013-04-08 02:12:00,
2013-04-07 19:45:00,47.0,41.0,-100.00,WSW,256,4.0,7.0,81,-99.99,,,0.02,82.279999,,2013-04-08 02:45:00,
2013-04-07 19:53:00,47.0,41.0,-100.00,WSW,256,4.0,7.0,81,-99.99,,,0.02,82.279999,,2013-04-08 02:53:00,
2013-04-07 20:05:00,47.0,41.0,-100.00,WSW,256,4.0,7.0,81,-99.99,,,0.02,82.279999,,2013-04-08 03:05:00,
2013-04-07 20:13:00,47.0,41.0,-100.00,WSW,256,4.0,7.0,81,-99.99,,,0.02,82.279999,,2013-04-08 03:13:00,
2013-04-07 20:46:00,45.0,38.0,-100.00,WNW,296,4.0,9.0,77,-99.99,,,0.01,0.460000,,2013-04-08 03:46:00,
2013-04-07 20:55:00,45.0,38.0,-100.00,WNW,296,4.0,9.0,77,-99.99,,,0.01,0.460000,,2013-04-08 03:55:00,
2013-04-07 21:02:00,45.0,38.0,-100.00,WNW,296,4.0,9.0,77,-99.99,,,0.01,0.460000,,2013-04-08 04:02:00,
2013-04-07 21:12:00,45.0,38.0,-100.00,WNW,296,4.0,9.0,77,-99.99,,,0.01,0.460000,,2013-04-08 04:12:00,
2013-04-07 21:43:00,44.0,39.0,-100.00,WSW,245,5.0,8.0,84,-99.99,,,0.01,0.000000,,2013-04-08 04:43:00,
2013-04-07 21:52:00,44.0,39.0,-100.00,WSW,245,5.0,8.0,84,-99.99,,,0.01,0.000000,,2013-04-08 04:52:00,
2013-04-07 22:02:00,44.0,39.0,-100.00,WSW,245,5.0,8.0,84,-99.99,,,0.01,0.000000,,2013-04-08 05:02:00,
2013-04-07 22:12:00,44.0,39.0,-100.00,WSW,245,5.0,8.0,84,-99.99,,,0.01,0.000000,,2013-04-08 05:12:00,
2013-04-07 22:42:00,42.0,39.0,-100.00,West,277,4.0,5.0,91,-99.99,,,0.01,0.000000,,2013-04-08 05:42:00,
2013-04-07 22:52:00,42.0,39.0,-100.00,West,277,4.0,5.0,91,-99.99,,,0.01,0.000000,,2013-04-08 05:52:00,
2013-04-07 23:02:00,42.0,39.0,-100.00,West,277,4.0,5.0,91,-99.99,,,0.01,0.000000,,2013-04-08 06:02:00,
2013-04-07 23:12:00,42.0,39.0,-100.00,West,277,4.0,5.0,91,-99.99,,,0.01,0.000000,,2013-04-08 06:12:00,
2013-04-07 23:42:00,43.0,40.0,-100.00,SSW,192,2.0,3.0,90,-99.99,,,0.01,0.000000,,2013-04-08 06:42:00,
2013-04-07 23:52:00,43.0,40.0,-100.00,SSW,192,2.0,3.0,90,-99.99,,,0.01,0.000000,,2013-04-08 06:52:00,